Weather History for Silver City, NM

Change the Weather History Date:

Tuesday, January 22, 2013

  Actual Average (KDMN) Record (KDMN)
Temperature  
Mean Temperature 46 °F 43 °F  
Max Temperature 64 °F 58 °F 79 °F (1950)
Min Temperature 28 °F 28 °F 11 °F (1966)
Degree Days  
Heating Degree Days 19    
Moisture  
Dew Point 14 °F    
Average Humidity 33    
Maximum Humidity 55    
Minimum Humidity 14    
Precipitation  
Precipitation 0.00 in 0.03 in 0.03 in (1991)
Month to date precipitation 0.42  
Year to date precipitation 0.42  
Sea Level Pressure  
Sea Level Pressure 30.28 in    
Wind  
Wind Speed 10 mph (NNW)    
Max Wind Speed 13 mph    
Max Gust Speed 18 mph    
Visibility 10 miles    
Events      
T = Trace of Precipitation, MM = Missing Value Source: NWS Daily Summary

Daily Weather History Graph

Daily Weather History Graph

Search for Another Location

Airport:

Trip Planner

Search our weather history database for the weather conditions in past years. The results will help you decide how hot, cold, wet, or windy it might be!

Date:

Astronomy

Jan. 22, 2013 Rise Set
Actual Time 7:12 AM MST 5:36 PM MST
Civil Twilight 6:46 AM MST 6:02 PM MST
Nautical Twilight 6:16 AM MST 6:32 PM MST
Astronomical Twilight 5:47 AM MST 7:01 PM MST
Moon 2:04 PM MST (1/22) 3:34 AM MST (1/22)
Length of Visible Light 11h 16m
Length of Day
10h 23m
Waxing Gibbous, 83% of the Moon is Illuminated
Jan 22
Waxing Gibbous
Jan 26
Full
Feb 3
Last Quarter
Feb 10
New
Feb 17
First Quarter

Hourly Weather History & Observations

Time (MST) Temp. Windchill Dew Point Humidity Pressure Visibility Wind Dir Wind Speed Gust Speed Precip Events Conditions
12:15 AM 35.6 °F 28.0 °F 14.0 °F 41% 30.25 in 10.0 mi North 10.4 mph - N/A   Clear
12:35 AM 35.6 °F 27.5 °F 14.0 °F 41% 30.25 in 10.0 mi North 11.5 mph - N/A   Clear
12:55 AM 35.6 °F 27.5 °F 14.0 °F 41% 30.25 in 10.0 mi North 11.5 mph - N/A   Clear
1:15 AM 33.8 °F 25.3 °F 14.0 °F 44% 30.25 in 10.0 mi North 11.5 mph - N/A   Clear
1:35 AM 33.8 °F 25.8 °F 14.0 °F 44% 30.25 in 10.0 mi North 10.4 mph - N/A   Clear
1:55 AM 32.0 °F 23.6 °F 14.0 °F 48% 30.26 in 10.0 mi North 10.4 mph - N/A   Clear
2:15 AM 32.0 °F 23.6 °F 14.0 °F 48% 30.27 in 10.0 mi North 10.4 mph - N/A   Clear
2:35 AM 32.0 °F 23.6 °F 14.0 °F 48% 30.26 in 10.0 mi North 10.4 mph - N/A   Clear
2:55 AM 32.0 °F 24.2 °F 14.0 °F 48% 30.27 in 10.0 mi North 9.2 mph - N/A   Clear
3:15 AM 32.0 °F 23.6 °F 14.0 °F 48% 30.28 in 10.0 mi North 10.4 mph - N/A   Clear
3:35 AM 32.0 °F 24.2 °F 14.0 °F 48% 30.28 in 10.0 mi North 9.2 mph - N/A   Clear
3:55 AM 30.2 °F 20.2 °F 14.0 °F 51% 30.27 in 10.0 mi North 12.7 mph - N/A   Clear
4:15 AM 32.0 °F 23.0 °F 12.2 °F 44% 30.28 in 10.0 mi North 11.5 mph - N/A   Clear
4:35 AM 32.0 °F 24.2 °F 12.2 °F 44% 30.27 in 10.0 mi North 9.2 mph - N/A   Clear
4:55 AM 30.2 °F 21.3 °F 12.2 °F 47% 30.28 in 10.0 mi North 10.4 mph - N/A   Clear
5:15 AM 28.4 °F 19.1 °F 12.2 °F 51% 30.28 in 10.0 mi NNW 10.4 mph - N/A   Clear
5:35 AM 30.2 °F 22.6 °F 14.0 °F 51% 30.28 in 10.0 mi NNW 8.1 mph - N/A   Clear
5:55 AM 30.2 °F 22.6 °F 14.0 °F 51% 30.28 in 10.0 mi North 8.1 mph - N/A   Clear
6:15 AM 30.2 °F 20.8 °F 14.0 °F 51% 30.29 in 10.0 mi NNW 11.5 mph - N/A   Clear
6:35 AM 28.4 °F 19.7 °F 14.0 °F 55% 30.29 in 10.0 mi NNW 9.2 mph - N/A   Clear
6:55 AM 28.4 °F 18.5 °F 14.0 °F 55% 30.29 in 10.0 mi NW 11.5 mph - N/A   Clear
7:15 AM 32.0 °F 24.2 °F 14.0 °F 48% 30.29 in 10.0 mi NNW 9.2 mph - N/A   Clear
7:35 AM 32.0 °F 24.2 °F 14.0 °F 48% 30.30 in 10.0 mi NNW 9.2 mph - N/A   Clear
7:55 AM 35.6 °F 29.9 °F 15.8 °F 44% 30.30 in 10.0 mi North 6.9 mph - N/A   Clear
8:15 AM 39.2 °F 33.6 °F 15.8 °F 39% 30.31 in 10.0 mi NNW 8.1 mph - N/A   Clear
8:35 AM 44.6 °F 39.2 °F 17.6 °F 34% 30.31 in 10.0 mi NW 10.4 mph - N/A   Clear
8:55 AM 46.4 °F 42.4 °F 17.6 °F 32% 30.31 in 10.0 mi NNW 8.1 mph - N/A   Clear
9:15 AM 50.0 °F - 17.6 °F 28% 30.32 in 10.0 mi WNW 8.1 mph - N/A   Clear
9:35 AM 51.8 °F - 17.6 °F 26% 30.32 in 10.0 mi West 5.8 mph - N/A   Clear
9:55 AM 55.4 °F - 17.6 °F 23% 30.32 in 10.0 mi WNW 8.1 mph - N/A   Clear
10:15 AM 57.2 °F - 17.6 °F 21% 30.32 in 10.0 mi WNW 8.1 mph - N/A   Clear
10:55 AM 59.0 °F - 19.4 °F 22% 30.32 in 10.0 mi West 4.6 mph - N/A   Clear
11:15 AM 59.0 °F - 19.4 °F 22% 30.31 in 10.0 mi SSW 3.5 mph - N/A   Clear
11:35 AM 60.8 °F - 17.6 °F 19% 30.30 in 10.0 mi West 3.5 mph - N/A   Clear
11:55 AM 62.6 °F - 19.4 °F 19% 30.29 in 10.0 mi SW 5.8 mph - N/A   Clear
12:15 PM 62.6 °F - 17.6 °F 18% 30.29 in 10.0 mi South 6.9 mph - N/A   Clear
12:35 PM 62.6 °F - 19.4 °F 19% 30.28 in 10.0 mi South 11.5 mph - N/A   Clear
12:55 PM 62.6 °F - 17.6 °F 18% 30.27 in 10.0 mi South 12.7 mph - N/A   Clear
1:15 PM 62.6 °F - 17.6 °F 18% 30.27 in 10.0 mi South 10.4 mph 18.4 mph N/A   Clear
1:35 PM 62.6 °F - 17.6 °F 18% 30.26 in 10.0 mi SSW 9.2 mph - N/A   Clear
1:55 PM 64.4 °F - 15.8 °F 15% 30.26 in 10.0 mi South 5.8 mph - N/A   Clear
2:15 PM 64.4 °F - 15.8 °F 15% 30.25 in 10.0 mi SSE 6.9 mph - N/A   Clear
2:35 PM 64.4 °F - 14.0 °F 14% 30.25 in 10.0 mi South 9.2 mph - N/A   Clear
2:55 PM 64.4 °F - 14.0 °F 14% 30.25 in 10.0 mi South 10.4 mph - N/A   Clear
3:15 PM 64.4 °F - 14.0 °F 14% 30.25 in 10.0 mi South 12.7 mph 17.3 mph N/A   Clear
3:35 PM 64.4 °F - 14.0 °F 14% 30.25 in 10.0 mi South 9.2 mph - N/A   Clear
3:55 PM 62.6 °F - 14.0 °F 15% 30.25 in 10.0 mi SSE 9.2 mph - N/A   Clear
4:15 PM 62.6 °F - 14.0 °F 15% 30.26 in 10.0 mi SSE 9.2 mph - N/A   Clear
4:35 PM 62.6 °F - 14.0 °F 15% 30.26 in 10.0 mi South 9.2 mph - N/A   Clear
4:55 PM 60.8 °F - 14.0 °F 16% 30.26 in 10.0 mi SSE 9.2 mph - N/A   Clear
5:15 PM 59.0 °F - 14.0 °F 17% 30.26 in 10.0 mi SSE 8.1 mph - N/A   Clear
5:35 PM 55.4 °F - 14.0 °F 20% 30.27 in 10.0 mi SE 6.9 mph - N/A   Clear
5:55 PM 53.6 °F - 12.2 °F 19% 30.27 in 10.0 mi SE 6.9 mph - N/A   Clear
6:15 PM 53.6 °F - 12.2 °F 19% 30.27 in 10.0 mi ESE 4.6 mph - N/A   Clear
6:35 PM 50.0 °F - 12.2 °F 22% 30.28 in 10.0 mi East 3.5 mph - N/A   Clear
6:55 PM 42.8 °F - 10.4 °F 27% 30.29 in 10.0 mi Calm Calm - N/A   Clear
7:15 PM 37.4 °F 32.8 °F 8.6 °F 30% 30.29 in 10.0 mi North 5.8 mph - N/A   Clear
7:35 PM 35.6 °F 30.7 °F 6.8 °F 30% 30.28 in 10.0 mi North 5.8 mph - N/A   Clear
7:55 PM 39.2 °F 33.0 °F 10.4 °F 31% 30.29 in 10.0 mi North 9.2 mph - N/A   Clear
8:15 PM 39.2 °F 32.5 °F 10.4 °F 31% 30.30 in 10.0 mi North 10.4 mph - N/A   Clear
8:35 PM 39.2 °F 32.5 °F 10.4 °F 31% 30.30 in 10.0 mi North 10.4 mph - N/A   Clear
8:55 PM 39.2 °F 32.0 °F 12.2 °F 33% 30.30 in 10.0 mi North 11.5 mph - N/A   Clear
9:15 PM 39.2 °F 32.0 °F 12.2 °F 33% 30.31 in 10.0 mi North 11.5 mph - N/A   Clear
9:35 PM 37.4 °F 30.3 °F 12.2 °F 36% 30.31 in 10.0 mi North 10.4 mph - N/A   Clear
9:55 PM 37.4 °F 30.8 °F 12.2 °F 36% 30.31 in 10.0 mi North 9.2 mph - N/A   Clear
10:15 PM 37.4 °F 29.8 °F 12.2 °F 36% 30.32 in 10.0 mi North 11.5 mph - N/A   Clear
10:35 PM 35.6 °F 28.0 °F 12.2 °F 38% 30.32 in 10.0 mi North 10.4 mph - N/A   Clear
10:55 PM 35.6 °F 27.5 °F 14.0 °F 41% 30.33 in 10.0 mi North 11.5 mph - N/A   Clear
11:15 PM 35.6 °F 28.0 °F 14.0 °F 41% 30.32 in 10.0 mi North 10.4 mph - N/A   Clear
11:35 PM 35.6 °F 27.5 °F 14.0 °F 41% 30.32 in 10.0 mi North 11.5 mph - N/A   Clear
11:55 PM 35.6 °F 27.5 °F 14.0 °F 41% 30.33 in 10.0 mi North 11.5 mph - N/A   Clear